Location: El Abasto
(10.3790°N, 67.5897°W)
Time: 16:56:42
(UTC+00:00)

Cosmos 1238 Rocket - Pass Details

Date: 19 May 2024
Orbit: 356 x 786 km, 82.9° (Epoch: 15 May)

Event Time Altitude Azimuth Distance (km) Brightness Sun altitude
Rises 12:35:34 0° 327° (NNW) 3,132 6.5 33.6°
Reaches altitude 10° 12:39:08 10° 302° (WNW) 2,089 5.5 34.5°
Drops below altitude 10° 12:43:28 10° 244° (WSW) 1,927 5.2 35.5°
Enters shadow 13:12:57 -58° 164° (SSE) 11,277 9.1 42.4°
Exits shadow 13:24:22 -75° 120° (ESE) 12,870 9.4 45.1°
Maximum altitude 23:16:03 31° 89° (E) 1,202 4.1 -7.7°
